When you browse on this site, cookies collect data to enhance your experience and personalize the content and advertising you see.
Visit our Privacy Policy to learn more. By continuing to use the site, you agree to this use of cookies and data.

Hourly Weather Yeroham

Today, 2 July, Thursday

Time Temperature Precipitation Wind Pressure Humidity
00:00 +22°C° 0 mm 1 mps 712 mmHg 63%
01:00 +21°C° 0 mm 1 mps 711 mmHg 65%
02:00 +20°C° 0 mm 1 mps 711 mmHg 66%
03:00 +20°C° 0 mm 1 mps 711 mmHg 65%
04:00 +17°C° 0 mm 0 mps 711 mmHg 64%
05:00 +17°C° 0 mm 0 mps 712 mmHg 64%
06:00 +20°C° 0 mm 0 mps 712 mmHg 52%
07:00 +26°C° 0 mm 1 mps 712 mmHg 40%
08:00 +29°C° 0 mm 2 mps 713 mmHg 29%
09:00 +31°C° 0 mm 2 mps 713 mmHg 26%
10:00 +34°C° 0 mm 3 mps 713 mmHg 22%
11:00 +36°C° 0 mm 3 mps 713 mmHg 18%
12:00 +36°C° 0 mm 4 mps 713 mmHg 17%
13:00 +37°C° 0 mm 4 mps 712 mmHg 16%
14:00 +37°C° 0 mm 5 mps 712 mmHg 18%
15:00 +36°C° 0 mm 6 mps 712 mmHg 21%
16:00 +35°C° 0 mm 7 mps 712 mmHg 24%
17:00 +34°C° 0 mm 7 mps 712 mmHg 26%
18:00 +32°C° 0 mm 7 mps 712 mmHg 35%
19:00 +28°C° 0 mm 6 mps 712 mmHg 43%
20:00 +26°C° 0 mm 5 mps 712 mmHg 52%
21:00 +25°C° 0 mm 4 mps 712 mmHg 53%
22:00 +24°C° 0 mm 3 mps 712 mmHg 54%
23:00 +23°C° 0 mm 2 mps 712 mmHg 55%

Tomorrow, 3 July, Friday

Time Temperature Precipitation Wind Pressure Humidity
00:00 +22°C° 0 mm 1 mps 712 mmHg 57%
01:00 +21°C° 0 mm 1 mps 712 mmHg 58%
02:00 +19°C° 0 mm 0 mps 711 mmHg 59%
03:00 +19°C° 0 mm 0 mps 711 mmHg 57%
04:00 +18°C° 0 mm 0 mps 712 mmHg 55%
05:00 +18°C° 0 mm 0 mps 712 mmHg 53%
06:00 +23°C° 0 mm 1 mps 712 mmHg 45%
07:00 +26°C° 0 mm 1 mps 712 mmHg 36%
08:00 +29°C° 0 mm 2 mps 713 mmHg 28%
09:00 +31°C° 0 mm 2 mps 713 mmHg 24%
10:00 +34°C° 0 mm 3 mps 713 mmHg 21%
11:00 +36°C° 0 mm 3 mps 713 mmHg 18%
12:00 +37°C° 0 mm 4 mps 713 mmHg 17%
13:00 +39°C° 0 mm 5 mps 713 mmHg 17%
14:00 +40°C° 0 mm 6 mps 712 mmHg 17%
15:00 +38°C° 0 mm 7 mps 712 mmHg 21%
16:00 +35°C° 0 mm 8 mps 712 mmHg 26%
17:00 +34°C° 0 mm 9 mps 711 mmHg 30%
18:00 +31°C° 0 mm 8 mps 712 mmHg 40%
19:00 +28°C° 0 mm 7 mps 712 mmHg 51%
20:00 +24°C° 0 mm 6 mps 712 mmHg 61%
21:00 +25°C° 0 mm 5 mps 712 mmHg 64%
22:00 +23°C° 0 mm 4 mps 713 mmHg 67%
23:00 +23°C° 0 mm 2 mps 713 mmHg 70%

Day after tomorrow, 4 July, Saturday

Time Temperature Precipitation Wind Pressure Humidity
00:00 +23°C° 0 mm 2 mps 713 mmHg 71%
01:00 +21°C° 0 mm 2 mps 713 mmHg 71%
02:00 +22°C° 0 mm 1 mps 713 mmHg 71%
03:00 +22°C° 0 mm 1 mps 713 mmHg 72%
04:00 +22°C° 0 mm 1 mps 713 mmHg 72%
05:00 +21°C° 0 mm 1 mps 713 mmHg 72%
06:00 +24°C° 0 mm 2 mps 713 mmHg 62%
07:00 +26°C° 0 mm 2 mps 713 mmHg 51%
08:00 +29°C° 0 mm 2 mps 713 mmHg 41%
09:00 +31°C° 0 mm 3 mps 713 mmHg 35%
10:00 +34°C° 0 mm 4 mps 714 mmHg 29%
11:00 +36°C° 0 mm 5 mps 714 mmHg 23%
12:00 +36°C° 0 mm 6 mps 713 mmHg 22%
13:00 +38°C° 0 mm 7 mps 713 mmHg 22%
14:00 +39°C° 0 mm 8 mps 713 mmHg 21%
15:00 +37°C° 0 mm 8 mps 713 mmHg 24%
16:00 +35°C° 0 mm 8 mps 712 mmHg 27%
17:00 +33°C° 0 mm 9 mps 712 mmHg 30%
18:00 +31°C° 0 mm 8 mps 712 mmHg 39%
19:00 +28°C° 0 mm 6 mps 712 mmHg 47%
20:00 +25°C° 0 mm 5 mps 712 mmHg 56%
21:00 +25°C° 0 mm 4 mps 712 mmHg 57%
22:00 +24°C° 0 mm 3 mps 712 mmHg 59%
23:00 +23°C° 0 mm 1 mps 712 mmHg 60%

5 July, Sunday

Time Temperature Precipitation Wind Pressure Humidity
00:00 +21°C° 0 mm 2 mps 712 mmHg 61%
01:00 +21°C° 0 mm 2 mps 712 mmHg 62%
02:00 +21°C° 0 mm 2 mps 711 mmHg 64%
03:00 +20°C° 0 mm 2 mps 711 mmHg 70%
04:00 +20°C° 0 mm 2 mps 711 mmHg 76%
05:00 +19°C° 0 mm 2 mps 711 mmHg 82%
06:00 +21°C° 0 mm 2 mps 711 mmHg 71%
07:00 +25°C° 0 mm 2 mps 712 mmHg 59%
08:00 +27°C° 0 mm 2 mps 712 mmHg 48%
09:00 +29°C° 0 mm 3 mps 712 mmHg 40%
10:00 +33°C° 0 mm 4 mps 712 mmHg 32%
11:00 +35°C° 0 mm 4 mps 712 mmHg 24%
12:00 +35°C° 0 mm 5 mps 711 mmHg 23%
13:00 +36°C° 0 mm 6 mps 711 mmHg 22%
14:00 +38°C° 0 mm 7 mps 711 mmHg 21%
15:00 +36°C° 0 mm 7 mps 711 mmHg 23%
16:00 +35°C° 0 mm 7 mps 710 mmHg 26%
17:00 +34°C° 0 mm 7 mps 710 mmHg 28%
18:00 +30°C° 0 mm 6 mps 710 mmHg 39%
19:00 +28°C° 0 mm 5 mps 710 mmHg 51%
20:00 +25°C° 0 mm 4 mps 711 mmHg 63%
21:00 +23°C° 0 mm 4 mps 710 mmHg 71%
22:00 +22°C° 0 mm 4 mps 710 mmHg 80%
23:00 +21°C° 0 mm 4 mps 710 mmHg 88%

6 July, Monday

Time Temperature Precipitation Wind Pressure Humidity
00:00 +21°C° 0 mm 4 mps 710 mmHg 90%
01:00 +21°C° 0 mm 4 mps 710 mmHg 91%
02:00 +21°C° 0 mm 4 mps 710 mmHg 93%
03:00 +21°C° 0 mm 4 mps 710 mmHg 92%
04:00 +21°C° 0 mm 4 mps 710 mmHg 91%
05:00 +21°C° 0 mm 3 mps 710 mmHg 89%
06:00 +22°C° 0 mm 3 mps 710 mmHg 81%
07:00 +25°C° 0 mm 3 mps 710 mmHg 73%
08:00 +26°C° 0 mm 3 mps 710 mmHg 64%
09:00 +28°C° 0 mm 4 mps 711 mmHg 53%
10:00 +32°C° 0 mm 5 mps 711 mmHg 41%
11:00 +34°C° 0 mm 5 mps 711 mmHg 30%
12:00 +35°C° 0 mm 7 mps 711 mmHg 28%
13:00 +37°C° 0 mm 8 mps 711 mmHg 25%
14:00 +37°C° 0 mm 9 mps 711 mmHg 23%
15:00 +35°C° 0 mm 9 mps 710 mmHg 29%
16:00 +33°C° 0 mm 9 mps 710 mmHg 34%
17:00 +31°C° 0 mm 10 mps 710 mmHg 40%
18:00 +28°C° 0 mm 8 mps 710 mmHg 49%
19:00 +27°C° 0 mm 7 mps 711 mmHg 57%
20:00 +25°C° 0 mm 5 mps 711 mmHg 66%
21:00 +23°C° 0 mm 5 mps 711 mmHg 73%
22:00 +22°C° 0 mm 4 mps 711 mmHg 79%
23:00 +21°C° 0 mm 3 mps 711 mmHg 86%

7 July, Tuesday

Time Temperature Precipitation Wind Pressure Humidity
00:00 +21°C° 0 mm 3 mps 711 mmHg 88%
01:00 +21°C° 0 mm 3 mps 711 mmHg 90%
02:00 +21°C° 0 mm 3 mps 711 mmHg 92%
03:00 +21°C° 0 mm 3 mps 711 mmHg 91%
04:00 +21°C° 0 mm 3 mps 711 mmHg 91%
05:00 +21°C° 0 mm 3 mps 711 mmHg 90%
06:00 +24°C° 0 mm 2 mps 711 mmHg 79%
07:00 +25°C° 0 mm 2 mps 712 mmHg 68%
08:00 +27°C° 0 mm 2 mps 712 mmHg 57%
09:00 +29°C° 0 mm 3 mps 712 mmHg 46%
10:00 +33°C° 0 mm 5 mps 713 mmHg 35%
11:00 +35°C° 0 mm 6 mps 713 mmHg 24%
12:00 +36°C° 0 mm 7 mps 713 mmHg 23%
13:00 +37°C° 0 mm 8 mps 713 mmHg 23%
14:00 +37°C° 0 mm 9 mps 713 mmHg 22%
15:00 +35°C° 0 mm 9 mps 712 mmHg 25%
16:00 +34°C° 0 mm 9 mps 712 mmHg 27%
17:00 +33°C° 0 mm 9 mps 712 mmHg 30%
18:00 +29°C° 0 mm 7 mps 712 mmHg 39%
19:00 +27°C° 0 mm 6 mps 713 mmHg 49%
20:00 +25°C° 0 mm 4 mps 713 mmHg 58%
21:00 +24°C° 0 mm 3 mps 713 mmHg 60%
22:00 +23°C° 0 mm 2 mps 712 mmHg 62%
23:00 +22°C° 0 mm 1 mps 712 mmHg 64%
Show more